• In Czech Republic
  • List of Countries
  • For 7 days
  • Water Temperature
  • Satellite Maps
  • Weather Map
  • Weather Widgets
  • user-avatar
    Login

    Hourly Weather Bregenz

    Today, 22 September, Saturday

    Time Temperature Precipitation Wind Pressure Humidity
    00:00 +9°C° 0.6 mm 2 mps 649 mmHg 96%
    01:00 +7°C° 0 mm 2 mps 649 mmHg 96%
    02:00 +7°C° 0.1 mm 2 mps 649 mmHg 96%
    03:00 +8°C° 0.1 mm 1 mps 649 mmHg 96%
    04:00 +7°C° 0.1 mm 1 mps 649 mmHg 96%
    05:00 +7°C° 0 mm 1 mps 649 mmHg 96%
    06:00 +7°C° 0 mm 1 mps 649 mmHg 95%
    07:00 +6°C° 0 mm 0 mps 649 mmHg 95%
    08:00 +7°C° 0 mm 0 mps 650 mmHg 89%
    09:00 +10°C° 0 mm 1 mps 650 mmHg 82%
    10:00 +11°C° 0 mm 1 mps 650 mmHg 76%
    11:00 +13°C° 0 mm 1 mps 651 mmHg 69%
    12:00 +14°C° 0 mm 1 mps 651 mmHg 62%
    13:00 +15°C° 0 mm 1 mps 651 mmHg 55%
    14:00 +15°C° 0 mm 2 mps 650 mmHg 57%
    15:00 +15°C° 0 mm 2 mps 650 mmHg 59%
    16:00 +14°C° 0 mm 2 mps 650 mmHg 61%
    17:00 +13°C° 0 mm 1 mps 650 mmHg 67%
    18:00 +12°C° 0 mm 1 mps 650 mmHg 72%
    19:00 +11°C° 0 mm 1 mps 649 mmHg 77%
    20:00 +11°C° 0.1 mm 1 mps 650 mmHg 78%
    21:00 +10°C° 0.1 mm 1 mps 650 mmHg 79%
    22:00 +10°C° 0.1 mm 1 mps 650 mmHg 79%
    23:00 +11°C° 0.1 mm 1 mps 650 mmHg 80%

    Tomorrow, 23 September, Sunday

    Time Temperature Precipitation Wind Pressure Humidity
    00:00 +11°C° 0.1 mm 1 mps 650 mmHg 80%
    01:00 +11°C° 0.1 mm 1 mps 650 mmHg 81%
    02:00 +11°C° 0 mm 1 mps 650 mmHg 80%
    03:00 +10°C° 0 mm 2 mps 649 mmHg 79%
    04:00 +10°C° 0 mm 2 mps 649 mmHg 78%
    05:00 +12°C° 0 mm 2 mps 649 mmHg 78%
    06:00 +12°C° 0 mm 2 mps 649 mmHg 77%
    07:00 +11°C° 0 mm 3 mps 649 mmHg 77%
    08:00 +13°C° 0 mm 3 mps 650 mmHg 73%
    09:00 +14°C° 0 mm 3 mps 650 mmHg 69%
    10:00 +17°C° 0 mm 3 mps 650 mmHg 65%
    11:00 +18°C° 0 mm 3 mps 650 mmHg 62%
    12:00 +20°C° 0 mm 3 mps 650 mmHg 59%
    13:00 +21°C° 0 mm 4 mps 650 mmHg 57%
    14:00 +21°C° 0.1 mm 4 mps 650 mmHg 59%
    15:00 +20°C° 0.1 mm 4 mps 649 mmHg 62%
    16:00 +20°C° 0.1 mm 4 mps 649 mmHg 65%
    17:00 +18°C° 0.6 mm 4 mps 648 mmHg 72%
    18:00 +15°C° 0.6 mm 4 mps 648 mmHg 80%
    19:00 +13°C° 0.6 mm 4 mps 647 mmHg 88%
    20:00 +13°C° 0.7 mm 5 mps 647 mmHg 90%
    21:00 +12°C° 0.7 mm 5 mps 647 mmHg 92%
    22:00 +11°C° 0.7 mm 6 mps 648 mmHg 94%
    23:00 +9°C° 2.4 mm 5 mps 648 mmHg 94%

    Day after tomorrow, 24 September, Monday

    Time Temperature Precipitation Wind Pressure Humidity
    00:00 +8°C° 2.4 mm 4 mps 648 mmHg 95%
    01:00 +7°C° 2.4 mm 3 mps 649 mmHg 96%
    02:00 +7°C° 0.7 mm 3 mps 649 mmHg 96%
    03:00 +5°C° 0.7 mm 3 mps 650 mmHg 95%
    04:00 +4°C° 0.7 mm 3 mps 650 mmHg 95%
    05:00 +5°C° 0.1 mm 2 mps 650 mmHg 95%
    06:00 +4°C° 0.1 mm 2 mps 651 mmHg 95%
    07:00 +4°C° 0.1 mm 2 mps 651 mmHg 95%
    08:00 +4°C° 0 mm 2 mps 652 mmHg 91%
    09:00 +5°C° 0 mm 2 mps 652 mmHg 88%
    10:00 +4°C° 0 mm 3 mps 653 mmHg 84%
    11:00 +5°C° 0 mm 3 mps 653 mmHg 78%
    12:00 +7°C° 0 mm 3 mps 653 mmHg 73%
    13:00 +7°C° 0 mm 3 mps 653 mmHg 67%
    14:00 +7°C° 0 mm 3 mps 654 mmHg 66%
    15:00 +7°C° 0 mm 3 mps 654 mmHg 65%
    16:00 +7°C° 0 mm 3 mps 654 mmHg 64%
    17:00 +5°C° 0 mm 3 mps 654 mmHg 69%
    18:00 +4°C° 0 mm 3 mps 654 mmHg 75%
    19:00 +2°C° 0 mm 3 mps 654 mmHg 80%
    20:00 +2°C° 0 mm 3 mps 654 mmHg 82%
    21:00 +2°C° 0 mm 2 mps 655 mmHg 83%
    22:00 +1°C° 0 mm 2 mps 655 mmHg 85%
    23:00 +1°C° 0 mm 2 mps 655 mmHg 85%

    25 September, Tuesday

    Time Temperature Precipitation Wind Pressure Humidity
    00:00 +1°C° 0 mm 2 mps 655 mmHg 85%
    01:00 -1°C° 0 mm 2 mps 655 mmHg 85%
    02:00 -1°C° 0 mm 2 mps 655 mmHg 84%
    03:00 -1°C° 0 mm 2 mps 655 mmHg 82%
    04:00 -1°C° 0 mm 2 mps 654 mmHg 81%
    05:00 -1°C° 0 mm 2 mps 655 mmHg 77%
    06:00 +1°C° 0 mm 2 mps 655 mmHg 74%
    07:00 +1°C° 0 mm 2 mps 655 mmHg 71%
    08:00 +2°C° 0 mm 3 mps 656 mmHg 63%
    09:00 +5°C° 0 mm 3 mps 656 mmHg 55%
    10:00 +8°C° 0 mm 3 mps 657 mmHg 47%
    11:00 +9°C° 0 mm 3 mps 657 mmHg 45%
    12:00 +10°C° 0 mm 4 mps 657 mmHg 44%
    13:00 +11°C° 0 mm 4 mps 657 mmHg 43%
    14:00 +11°C° 0 mm 4 mps 657 mmHg 46%
    15:00 +11°C° 0 mm 4 mps 656 mmHg 49%
    16:00 +10°C° 0 mm 4 mps 656 mmHg 52%
    17:00 +8°C° 0 mm 3 mps 656 mmHg 60%
    18:00 +5°C° 0 mm 3 mps 655 mmHg 68%
    19:00 +4°C° 0 mm 2 mps 655 mmHg 76%
    20:00 +3°C° 0 mm 2 mps 655 mmHg 76%
    21:00 +3°C° 0 mm 2 mps 655 mmHg 76%
    22:00 +3°C° 0 mm 2 mps 656 mmHg 76%
    23:00 +3°C° 0 mm 2 mps 656 mmHg 77%

    26 September, Wednesday

    Time Temperature Precipitation Wind Pressure Humidity
    00:00 +3°C° 0 mm 2 mps 656 mmHg 78%
    01:00 +2°C° 0 mm 2 mps 656 mmHg 79%
    02:00 +2°C° 0 mm 2 mps 655 mmHg 79%
    03:00 +3°C° 0 mm 1 mps 655 mmHg 79%
    04:00 +3°C° 0 mm 1 mps 655 mmHg 79%
    05:00 +3°C° 0 mm 1 mps 655 mmHg 76%
    06:00 +4°C° 0 mm 1 mps 655 mmHg 74%
    07:00 +4°C° 0 mm 1 mps 655 mmHg 72%
    08:00 +7°C° 0 mm 1 mps 656 mmHg 63%
    09:00 +11°C° 0 mm 1 mps 657 mmHg 54%
    10:00 +14°C° 0 mm 1 mps 658 mmHg 46%
    11:00 +15°C° 0 mm 1 mps 658 mmHg 44%
    12:00 +16°C° 0 mm 1 mps 658 mmHg 42%
    13:00 +17°C° 0 mm 2 mps 658 mmHg 41%
    14:00 +18°C° 0 mm 1 mps 658 mmHg 45%
    15:00 +18°C° 0 mm 1 mps 658 mmHg 49%
    16:00 +18°C° 0 mm 1 mps 657 mmHg 52%
    17:00 +14°C° 0 mm 1 mps 657 mmHg 62%
    18:00 +11°C° 0 mm 1 mps 656 mmHg 73%
    19:00 +8°C° 0 mm 1 mps 656 mmHg 83%
    20:00 +8°C° 0 mm 1 mps 655 mmHg 81%
    21:00 +8°C° 0 mm 1 mps 655 mmHg 79%
    22:00 +8°C° 0 mm 1 mps 655 mmHg 78%
    23:00 +8°C° 0 mm 1 mps 655 mmHg 75%

    27 September, Thursday

    Time Temperature Precipitation Wind Pressure Humidity
    00:00 +7°C° 0 mm 1 mps 655 mmHg 72%
    01:00 +7°C° 0 mm 1 mps 655 mmHg 70%
    02:00 +7°C° 0 mm 1 mps 655 mmHg 68%
    03:00 +7°C° 0 mm 1 mps 654 mmHg 66%
    04:00 +7°C° 0 mm 1 mps 654 mmHg 64%
    05:00 +7°C° 0 mm 1 mps 654 mmHg 63%
    06:00 +7°C° 0 mm 1 mps 654 mmHg 62%
    07:00 +7°C° 0 mm 1 mps 654 mmHg 62%
    08:00 +10°C° 0 mm 1 mps 655 mmHg 56%
    09:00 +13°C° 0 mm 1 mps 655 mmHg 50%
    10:00 +16°C° 0 mm 1 mps 656 mmHg 45%
    11:00 +18°C° 0 mm 1 mps 656 mmHg 43%
    12:00 +19°C° 0 mm 1 mps 655 mmHg 42%
    13:00 +19°C° 0 mm 2 mps 655 mmHg 41%
    14:00 +18°C° 0 mm 2 mps 655 mmHg 45%
    15:00 +18°C° 0 mm 2 mps 654 mmHg 49%
    16:00 +19°C° 0 mm 1 mps 654 mmHg 53%
    17:00 +15°C° 0 mm 1 mps 653 mmHg 62%
    18:00 +12°C° 0 mm 1 mps 652 mmHg 72%
    19:00 +9°C° 0 mm 1 mps 652 mmHg 81%
    20:00 +9°C° 0 mm 1 mps 652 mmHg 81%
    21:00 +8°C° 0 mm 1 mps 651 mmHg 81%
    22:00 +8°C° 0 mm 1 mps 651 mmHg 81%
    23:00 +8°C° 0 mm 1 mps 651 mmHg 80%
    Show more